150P/LONEOS (2024)

Japanese version
Home page
Updated on July 27, 2024

---------------------------------------------------------------------

* Profile

* Pictures

* Orbital Elements

Epoch 2024 Mar. 31.0 TT = JDT 2460400.5
T 2024 Mar. 12.46185 TT                                 Rudenko
q   1.7455858            (2000.0)            P               Q
n   0.12946204     Peri.  246.11287     -0.88084401     -0.35080505
a   3.8699714      Node   272.05902     +0.45839732     -0.79977258
e   0.5489409      Incl.   18.54736     -0.11826122     -0.48713411
P   7.61
>From 1145 observations 1978 Mar. 6-2024 Mar. 17, mean residual 0".4.

* Finding Charts

* Magnitudes Graph

        H = 14.5  G = 0.15

---------------------------------------------------------------------

The orbital elements are published on M.P.E.C. 2024-F34.
The charts are made with StellaNavigator Ver.10 (AstroArts).
The magnitudes graphs are made with Comet for Windows.

---------------------------------------------------------------------

Copyright(C) Seiichi Yoshida (comet@aerith.net). All rights reserved.